EA7RX-13 Weather Reports


Display with metric or nautical units.
time (UTC)temp
F
wind
direction
speed
MPH
gust
MPH
rain 1hr
in
rain 24hr
in
rain mn
in
humidity
%
barometer
mb
20260507114351 77 0.0 0.0 0.00 0.00 0.00 44 1008.2
20260507113351 77 0.0 0.0 0.00 0.00 0.00 45 1008.3
20260507112351 77 0.0 0.0 0.00 0.00 0.00 43 1008.5
20260507111351 78 0.0 0.0 0.00 0.00 0.00 45 1008.5
20260507110351 77 0.0 0.0 0.00 0.00 0.00 43 1008.8
20260507105351 75 0.0 0.0 0.00 0.00 0.00 47 1008.9
20260507104351 76 0.0 0.0 0.00 0.00 0.00 50 1008.8
20260507103351 75 0.0 0.0 0.00 0.00 0.00 52 1009.0
20260507102351 73 0.0 0.0 0.00 0.00 0.00 56 1009.3
20260507101351 70 0.0 0.0 0.00 0.00 0.00 60 1009.6
20260507100351 70 0.0 0.0 0.00 0.00 0.00 62 1009.8
20260507095351 70 0.0 0.0 0.00 0.00 0.00 65 1009.8
20260507094351 67 0.0 0.0 0.00 0.00 0.00 71 1010.0
20260507093351 67 0.0 0.0 0.00 0.00 0.00 73 1010.1
20260507092351 67 0.0 0.0 0.00 0.00 0.00 73 1009.9
20260507091351 65 0.0 0.0 0.00 0.00 0.00 88 1010.1
20260507090351 64 0.0 0.0 0.00 0.00 0.00 92 1010.1
20260507085351 66 0.0 0.0 0.00 0.00 0.00 70 1010.2
20260507084351 65 0.0 0.0 0.00 0.00 0.00 66 1010.3
20260507083351 66 0.0 0.0 0.00 0.00 0.00 64 1010.1
20260507082351 65 0.0 0.0 0.00 0.00 0.00 66 1010.3
20260507081351 65 0.0 0.0 0.00 0.00 0.00 69 1010.3
20260507080351 65 0.0 0.0 0.00 0.00 0.00 67 1010.2
20260507075351 66 0.0 0.0 0.00 0.00 0.00 64 1010.0
20260507074351 65 0.0 0.0 0.00 0.00 0.00 79 1010.3
20260507073351 64 0.0 0.0 0.00 0.00 0.00 89 1010.3
20260507072351 63 0.0 0.0 0.00 0.00 0.00 10 1010.3
20260507071351 62 0.0 0.0 0.00 0.00 0.00 10 1010.3
20260507070351 62 0.0 0.0 0.00 0.00 0.00 10 1010.3
20260507065351 61 0.0 0.0 0.00 0.00 0.00 10 1010.4
20260507064351 60 0.0 0.0 0.00 0.00 0.00 10 1010.4
20260507063351 60 0.0 0.0 0.00 0.00 0.00 10 1010.2
20260507062351 58 0.0 0.0 0.00 0.00 0.00 10 1010.2
20260507061351 57 0.0 0.0 0.00 0.00 0.00 10 1010.2
20260507060351 56 0.0 0.0 0.00 0.00 0.00 10 1010.3
20260507055351 55 0.0 0.0 0.00 0.00 0.00 10 1010.3
20260507054351 55 0.0 0.0 0.00 0.00 0.00 10 1010.3
20260507053351 55 0.0 0.0 0.00 0.00 0.00 10 1010.2
20260507052351 55 0.0 0.0 0.00 0.00 0.00 10 1010.1
20260507051351 55 0.0 0.0 0.00 0.00 0.00 10 1010.0
20260507050351 55 0.0 0.0 0.00 0.00 0.00 10 1009.9
20260507045351 56 0.0 0.0 0.00 0.00 0.00 10 1009.7
20260507044351 55 0.0 0.0 0.00 0.00 0.00 10 1009.8
20260507043351 56 0.0 0.0 0.00 0.00 0.00 10 1009.6
20260507042351 56 0.0 0.0 0.00 0.00 0.00 10 1009.6
20260507041351 56 0.0 0.0 0.00 0.00 0.00 10 1009.5
20260507040351 57 0.0 0.0 0.00 0.00 0.00 10 1009.4
20260507035351 57 0.0 0.0 0.00 0.00 0.00 10 1009.4
20260507034351 57 0.0 0.0 0.00 0.00 0.00 10 1009.4
20260507033351 57 0.0 0.0 0.00 0.00 0.00 10 1009.4
20260507032351 58 0.0 0.0 0.00 0.00 0.00 10 1009.1
20260507031351 58 0.0 0.0 0.00 0.00 0.00 10 1009.2
20260507030351 58 0.0 0.0 0.00 0.00 0.00 10 1009.1
20260507025351 58 0.0 0.0 0.00 0.00 0.00 10 1009.1
20260507024351 58 0.0 0.0 0.00 0.00 0.00 10 1009.2
20260507023351 58 0.0 0.0 0.00 0.00 0.00 10 1009.1
20260507022351 59 0.0 0.0 0.00 0.00 0.00 10 1009.1
20260507021351 59 0.0 0.0 0.00 0.00 0.00 10 1008.9
20260507020351 60 0.0 0.0 0.00 0.00 0.00 10 1009.0
20260507015351 59 0.0 0.0 0.00 0.00 0.00 10 1009.0
20260507014351 59 0.0 0.0 0.00 0.00 0.00 10 1009.1
20260507013351 60 0.0 0.0 0.00 0.00 0.00 10 1008.9
20260507012351 60 0.0 0.0 0.00 0.00 0.00 89 1009.0
20260507011351 60 0.0 0.0 0.00 0.00 0.00 10 1009.0
20260507010351 61 0.0 0.0 0.00 0.00 0.00 77 1009.0
20260507005351 62 0.0 0.0 0.00 0.00 0.00 74 1009.1
20260507004351 62 0.0 0.0 0.00 0.00 0.00 72 1008.8
20260507003351 63 0.0 0.0 0.00 0.00 0.00 66 1008.8
20260507002351 63 0.0 0.0 0.00 0.00 0.00 59 1008.8
20260507001351 63 0.0 0.0 0.00 0.00 0.00 58 1009.0
20260507000351 62 0.0 0.0 0.00 0.00 0.00 64 1009.2
20260506235351 63 0.0 0.0 0.00 0.00 0.00 62 1008.8
20260506234351 63 0.0 0.0 0.00 0.00 0.00 62 1008.8
20260506233351 63 0.0 0.0 0.00 0.00 0.00 60 1008.8
20260506232351 64 0.0 0.0 0.00 0.00 0.00 64 1008.9
20260506231351 63 0.0 0.0 0.00 0.00 0.00 60 1008.8
20260506230351 63 0.0 0.0 0.00 0.00 0.00 58 1008.6
20260506225351 63 0.0 0.0 0.00 0.00 0.00 59 1008.5
20260506224351 63 0.0 0.0 0.00 0.00 0.00 64 1008.6
20260506223351 62 0.0 0.0 0.00 0.00 0.00 60 1008.5
20260506222351 63 0.0 0.0 0.00 0.00 0.00 60 1008.5
20260506221351 64 0.0 0.0 0.00 0.00 0.00 59 1008.4
20260506220351 63 0.0 0.0 0.00 0.00 0.00 61 1008.5
20260506215351 63 0.0 0.0 0.00 0.00 0.00 65 1008.8
20260506214351 62 0.0 0.0 0.00 0.00 0.00 67 1008.9
20260506213351 62 0.0 0.0 0.00 0.00 0.00 71 1008.8
20260506212351 62 0.0 0.0 0.00 0.00 0.00 75 1008.7
20260506211351 62 0.0 0.0 0.00 0.00 0.00 80 1008.7
20260506210351 63 0.0 0.0 0.00 0.00 0.00 68 1008.5
20260506205351 63 0.0 0.0 0.00 0.00 0.00 70 1008.4
20260506204351 63 0.0 0.0 0.00 0.00 0.00 72 1008.4
20260506203351 63 0.0 0.0 0.00 0.00 0.00 76 1008.3
20260506202351 63 0.0 0.0 0.00 0.00 0.00 69 1008.2
20260506201351 63 0.0 0.0 0.00 0.00 0.00 70 1008.1
20260506200350 64 0.0 0.0 0.00 0.00 0.00 61 1008.0
20260506195351 64 0.0 0.0 0.00 0.00 0.00 69 1007.8
20260506194351 65 0.0 0.0 0.00 0.00 0.00 72 1007.6
20260506193351 66 0.0 0.0 0.00 0.00 0.00 57 1007.5
20260506192351 67 0.0 0.0 0.00 0.00 0.00 52 1007.3
20260506191350 68 0.0 0.0 0.00 0.00 0.00 46 1007.0
20260506190350 69 0.0 0.0 0.00 0.00 0.00 48 1007.0
20260506185350 70 0.0 0.0 0.00 0.00 0.00 47 1006.9
20260506184351 71 0.0 0.0 0.00 0.00 0.00 43 1006.6
20260506183351 72 0.0 0.0 0.00 0.00 0.00 40 1006.7
20260506182350 72 0.0 0.0 0.00 0.00 0.00 38 1006.7
20260506181351 73 0.0 0.0 0.00 0.00 0.00 39 1006.6
20260506180350 73 0.0 0.0 0.00 0.00 0.00 38 1006.5
20260506175350 73 0.0 0.0 0.00 0.00 0.00 36 1006.7
20260506174350 73 0.0 0.0 0.00 0.00 0.00 39 1006.6
20260506173351 73 0.0 0.0 0.00 0.00 0.00 42 1006.6
20260506172350 74 0.0 0.0 0.00 0.00 0.00 37 1006.7
20260506171350 75 0.0 0.0 0.00 0.00 0.00 35 1006.6
20260506170350 75 0.0 0.0 0.00 0.00 0.00 39 1006.8
20260506165350 76 0.0 0.0 0.00 0.00 0.00 37 1006.6
20260506164350 76 0.0 0.0 0.00 0.00 0.00 37 1006.5
20260506163350 76 0.0 0.0 0.00 0.00 0.00 38 1006.6
20260506162350 75 0.0 0.0 0.00 0.00 0.00 36 1006.9
20260506161350 75 0.0 0.0 0.00 0.00 0.00 37 1006.7
20260506160350 77 0.0 0.0 0.00 0.00 0.00 36 1006.6
20260506155350 77 0.0 0.0 0.00 0.00 0.00 36 1006.6
20260506154350 77 0.0 0.0 0.00 0.00 0.00 35 1006.7
20260506153350 76 0.0 0.0 0.00 0.00 0.00 37 1006.9
20260506152350 77 0.0 0.0 0.00 0.00 0.00 38 1006.9
20260506151350 76 0.0 0.0 0.00 0.00 0.00 37 1007.0
20260506150350 78 0.0 0.0 0.00 0.00 0.00 36 1006.9
20260506145350 77 0.0 0.0 0.00 0.00 0.00 36 1007.1
20260506144350 77 0.0 0.0 0.00 0.00 0.00 36 1007.3
20260506143350 79 0.0 0.0 0.00 0.00 0.00 36 1007.2
20260506142350 80 0.0 0.0 0.00 0.00 0.00 35 1007.3
20260506141350 79 0.0 0.0 0.00 0.00 0.00 35 1007.4
20260506140350 78 0.0 0.0 0.00 0.00 0.00 34 1007.6
20260506135350 79 0.0 0.0 0.00 0.00 0.00 35 1007.6
20260506134350 80 0.0 0.0 0.00 0.00 0.00 35 1007.6
20260506133350 80 0.0 0.0 0.00 0.00 0.00 35 1007.7
20260506132350 80 0.0 0.0 0.00 0.00 0.00 36 1007.8
20260506131350 78 0.0 0.0 0.00 0.00 0.00 35 1007.9
20260506130350 78 0.0 0.0 0.00 0.00 0.00 35 1008.0
20260506125350 77 0.0 0.0 0.00 0.00 0.00 37 1008.3
20260506124350 76 0.0 0.0 0.00 0.00 0.00 35 1008.4
20260506123350 81 0.0 0.0 0.00 0.00 0.00 33 1008.1
20260506122350 78 0.0 0.0 0.00 0.00 0.00 36 1008.3
20260506121350 78 0.0 0.0 0.00 0.00 0.00 34 1008.5
20260506120350 76 0.0 0.0 0.00 0.00 0.00 34 1008.8
20260506115350 78 0.0 0.0 0.00 0.00 0.00 36 1008.7